Change the Weather History Date:

Saturday, July 6, 2013

  Actual Average (KPDC) Record (KPDC)
Temperature  
Mean Temperature 76 °F -  
Max Temperature 90 °F 85 °F 102 °F (2012)
Min Temperature 61 °F 59 °F 45 °F (1972)
Cooling Degree Days 10    
Growing Degree Days 26 (Base 50)    
Moisture  
Dew Point 63 °F    
Average Humidity 63    
Maximum Humidity 90    
Minimum Humidity 38    
Precipitation  
Precipitation 0.00 in - - ()
Sea Level Pressure  
Sea Level Pressure 29.97 in    
Wind  
Wind Speed 3 mph (South)    
Max Wind Speed 10 mph    
Max Gust Speed 18 mph    
Visibility 9 miles    
Events      
Averages and records for this station are not official NWS values.
T = Trace of Precipitation, MM = Missing Value Source: NWS Daily Summary

Daily Weather History Graph

Daily Weather History Graph

Search for Another Location

Airport or City:

Trip Planner

Search our weather history database for the weather conditions in past years. The results will help you decide how hot, cold, wet, or windy it might be!

Date:

Astronomy

Jul. 06, 2013 Rise Set
Actual Time 5:29 AM CDT 8:44 PM CDT
Civil Twilight 4:54 AM CDT 9:19 PM CDT
Nautical Twilight 4:09 AM CDT 10:04 PM CDT
Astronomical Twilight 3:14 AM CDT 10:59 PM CDT
Moon 4:17 AM CDT (7/6) 7:24 PM CDT (7/6)
Length of Visible Light 16h 24m
Length of Day
15h 14m
Waning Crescent, 2% of the Moon is Illuminated
Jul 6
Waning Crescent
Jul 8
New
Jul 15
First Quarter
Jul 22
Full
Jul 29
Last Quarter

Hourly Weather History & Observations

Time (CDT) Temp. Heat Index Dew Point Humidity Pressure Visibility Wind Dir Wind Speed Gust Speed Precip Events Conditions
12:53 AM 69.1 °F - 62.1 °F 78% 29.99 in 10.0 mi Calm Calm - N/A   Clear
1:53 AM 69.1 °F - 61.0 °F 75% 30.00 in 10.0 mi Calm Calm - N/A   Clear
2:53 AM 64.9 °F - 60.1 °F 84% 30.00 in 10.0 mi Calm Calm - N/A   Clear
3:53 AM 64.9 °F - 60.1 °F 84% 30.00 in 10.0 mi Calm Calm - N/A   Clear
4:53 AM 62.1 °F - 59.0 °F 90% 30.00 in 7.0 mi Calm Calm - N/A   Clear
5:53 AM 61.0 °F - 57.9 °F 90% 30.00 in 4.0 mi Calm Calm - N/A   Clear
6:53 AM 66.0 °F - 63.0 °F 90% 30.00 in 5.0 mi Calm Calm - N/A   Clear
7:53 AM 73.0 °F - 64.0 °F 73% 30.01 in 8.0 mi SSW 5.8 mph - N/A   Clear
8:53 AM 78.1 °F - 64.0 °F 62% 30.01 in 9.0 mi South 6.9 mph - N/A   Clear
9:53 AM 81.0 °F 82.5 °F 64.0 °F 56% 29.99 in 10.0 mi SSW 10.4 mph - N/A   Clear
10:53 AM 84.0 °F 84.9 °F 63.0 °F 49% 29.98 in 10.0 mi Variable 6.9 mph - N/A   Clear
11:53 AM 86.0 °F 86.8 °F 63.0 °F 46% 29.98 in 10.0 mi Variable 6.9 mph - N/A   Clear
12:53 PM 88.0 °F 88.7 °F 63.0 °F 43% 29.96 in 10.0 mi South 8.1 mph 18.4 mph N/A   Clear
1:53 PM 89.1 °F 89.3 °F 62.1 °F 40% 29.95 in 10.0 mi SSE 10.4 mph - N/A   Clear
2:53 PM 90.0 °F 90.3 °F 62.1 °F 39% 29.95 in 10.0 mi South 5.8 mph - N/A   Clear
3:53 PM 90.0 °F 90.0 °F 61.0 °F 38% 29.95 in 10.0 mi South 6.9 mph - N/A   Clear
4:53 PM 89.1 °F 89.3 °F 62.1 °F 40% 29.94 in 10.0 mi South 9.2 mph - N/A   Clear
5:53 PM 88.0 °F 88.4 °F 62.1 °F 42% 29.92 in 10.0 mi Variable 3.5 mph - N/A   Clear
6:53 PM 86.0 °F 86.8 °F 63.0 °F 46% 29.92 in 10.0 mi South 6.9 mph - N/A   Clear
7:53 PM 82.9 °F 84.6 °F 64.9 °F 54% 29.92 in 10.0 mi Variable 3.5 mph - 0.00 in   Clear
8:53 PM 80.1 °F 81.9 °F 64.9 °F 60% 29.93 in 10.0 mi Variable 3.5 mph - N/A   Clear
9:53 PM 79.0 °F - 64.9 °F 62% 29.94 in 10.0 mi Variable 4.6 mph - 0.00 in   Clear
10:53 PM 73.0 °F - 66.0 °F 79% 29.95 in 10.0 mi Calm Calm - N/A   Clear
11:53 PM 72.0 °F - 66.0 °F 81% 29.95 in 10.0 mi Calm Calm - N/A   Clear